Hazlehurst, GA

6:12 PM EDT on October 13, 2019 (GMT -0400)
Hazlehurst

Weather History for KAZE - August, 2019

Change the Weather History Date:

Friday, August 30, 2019

  Actual Average Record
Temperature  
Mean Temperature 81 °F -  
Max Temperature 92 °F 89 °F 96 °F (2014)
Min Temperature 70 °F 0 °F 70 °F (2019)
Cooling Degree Days 16    
Growing Degree Days 31 (Base 50)    
Moisture  
Dew Point 61 °F    
Average Humidity 53    
Maximum Humidity 73    
Minimum Humidity 27    
Precipitation  
Precipitation 0.00 in - - ()
Sea Level Pressure  
Sea Level Pressure 30.04 in    
Wind  
Wind Speed 3 mph (ENE)    
Max Wind Speed 10 mph    
Max Gust Speed 22 mph    
Visibility 10 miles    
Events      
Averages and records for this station are not official NWS values.
T = Trace of Precipitation, MM = Missing Value Source: NWS Daily Summary

Daily Weather History Graph

Daily Weather History Graph

Search for Another Location

Airport or City:

Astronomy

Aug. 30, 2019 Rise Set
Actual Time 7:04 AM EDT 7:57 PM EDT
Civil Twilight 6:39 AM EDT 8:22 PM EDT
Nautical Twilight 6:10 AM EDT 8:51 PM EDT
Astronomical Twilight 5:39 AM EDT 9:21 PM EDT
Moon 7:07 AM EDT (8/30) 8:32 PM EDT (8/30)
Length of Visible Light 13h 42m
Length of Day
12h 52m
New Moon, 0% of the Moon is Illuminated
Aug 30
New Moon
Sep 5
First Quarter
Sep 14
Full
Sep 21
Last Quarter
Sep 28
New

Hourly Weather History & Observations

Time (EDT) Temp. Heat Index Dew Point Humidity Pressure Visibility Wind Dir Wind Speed Gust Speed Precip Events Conditions
12:10 AM 77.5 °F - 58.3 °F 51% 30.05 in 10.0 mi East 3.5 mph - N/A   Clear
12:30 AM 76.8 °F - 58.6 °F 53% 30.05 in 10.0 mi Calm Calm - N/A   Clear
12:50 AM 75.7 °F - 59.2 °F 56% 30.05 in 10.0 mi Calm Calm - N/A   Clear
1:10 AM 73.8 °F - 59.9 °F 62% 30.05 in 10.0 mi Calm Calm - N/A   Clear
1:30 AM 75.6 °F - 59.0 °F 56% 30.04 in 10.0 mi Calm Calm - N/A   Clear
1:50 AM 72.1 °F - 61.9 °F 70% 30.04 in 10.0 mi Calm Calm - N/A   Clear
2:10 AM 74.5 °F - 59.9 °F 60% 30.03 in 10.0 mi Calm Calm - N/A   Clear
2:30 AM 72.1 °F - 59.9 °F 65% 30.03 in 10.0 mi Calm Calm - N/A   Clear
2:50 AM 72.9 °F - 59.5 °F 63% 30.03 in 10.0 mi ENE 3.5 mph - N/A   Clear
3:10 AM 72.3 °F - 60.1 °F 65% 30.02 in 10.0 mi Calm Calm - N/A   Clear
3:30 AM 72.5 °F - 59.5 °F 64% 30.02 in 10.0 mi East 3.5 mph - N/A   Scattered Clouds
3:50 AM 72.9 °F - 59.9 °F 64% 30.02 in 10.0 mi Calm Calm - N/A   Scattered Clouds
4:10 AM 72.1 °F - 59.9 °F 65% 30.02 in 10.0 mi Calm Calm - N/A   Clear
4:50 AM 71.2 °F - 59.9 °F 67% 30.02 in 10.0 mi Calm Calm - N/A   Clear
5:10 AM 71.2 °F - 60.1 °F 68% 30.02 in 10.0 mi Calm Calm - N/A   Clear
5:30 AM 71.1 °F - 60.4 °F 69% 30.03 in 10.0 mi Calm Calm - N/A   Clear
5:50 AM 71.1 °F - 60.8 °F 70% 30.03 in 10.0 mi Calm Calm - N/A   Clear
6:10 AM 70.7 °F - 60.8 °F 71% 30.03 in 10.0 mi Calm Calm - N/A   Clear
6:30 AM 70.7 °F - 60.6 °F 70% 30.04 in 10.0 mi ENE 3.5 mph - N/A   Clear
6:50 AM 70.7 °F - 61.0 °F 71% 30.05 in 10.0 mi ENE 3.5 mph - N/A   Clear
7:10 AM 70.3 °F - 61.2 °F 73% 30.05 in 10.0 mi Calm Calm - N/A   Clear
7:30 AM 70.3 °F - 61.3 °F 73% 30.06 in 10.0 mi Calm Calm - N/A   Clear
7:50 AM 71.6 °F - 62.4 °F 73% 30.07 in 10.0 mi Calm Calm - N/A   Clear
8:10 AM 72.9 °F - 62.8 °F 71% 30.07 in 10.0 mi Calm Calm - N/A   Clear
8:30 AM 73.8 °F - 63.7 °F 71% 30.07 in 10.0 mi Calm Calm - N/A   Clear
8:50 AM 75.4 °F - 65.7 °F 72% 30.07 in 10.0 mi Calm Calm - N/A   Clear
9:10 AM 77.2 °F - 67.1 °F 71% 30.07 in 10.0 mi ENE 4.6 mph - N/A   Clear
9:30 AM 78.4 °F - 67.8 °F 70% 30.08 in 10.0 mi ENE 3.5 mph - N/A   Clear
10:30 AM 83.5 °F 85.1 °F 64.9 °F 53% 30.09 in 10.0 mi ENE 6.9 mph - N/A   Clear
10:50 AM 85.8 °F 86.1 °F 61.7 °F 44% 30.10 in 10.0 mi East 6.9 mph - N/A   Clear
11:10 AM 86.2 °F 85.2 °F 57.7 °F 38% 30.09 in 10.0 mi East 10.4 mph - N/A   Clear
11:30 AM 87.3 °F 85.9 °F 56.8 °F 35% 30.09 in 10.0 mi ENE 9.2 mph - N/A   Clear
11:50 AM 87.6 °F 86.1 °F 56.1 °F 34% 30.08 in 10.0 mi ENE 8.1 mph 18.4 mph N/A   Clear
12:10 PM 88.3 °F - 51.8 °F 28% 30.07 in 10.0 mi East 5.8 mph - N/A   Clear
12:50 PM 89.4 °F - 51.6 °F 27% 30.07 in 10.0 mi Calm Calm - N/A   Clear
1:10 PM 89.8 °F - 52.9 °F 28% 30.06 in 10.0 mi ENE 6.9 mph - N/A   Clear
1:30 PM 89.6 °F 87.5 °F 54.5 °F 30% 30.05 in 10.0 mi NE 6.9 mph - N/A   Clear
1:50 PM 90.0 °F 87.5 °F 53.1 °F 28% 30.05 in 10.0 mi NE 6.9 mph - N/A   Clear
2:10 PM 90.7 °F 89.2 °F 56.7 °F 32% 30.04 in 10.0 mi East 10.4 mph - N/A   Clear
2:30 PM 90.5 °F 88.7 °F 55.8 °F 31% 30.03 in 10.0 mi ENE 5.8 mph - N/A   Clear
2:50 PM 90.9 °F 89.4 °F 57.6 °F 32% 30.02 in 10.0 mi East 5.8 mph 21.9 mph N/A   Clear
3:10 PM 91.0 °F 90.0 °F 58.1 °F 33% 30.02 in 10.0 mi East 6.9 mph - N/A   Clear
3:30 PM 91.0 °F 90.0 °F 57.9 °F 33% 30.01 in 10.0 mi NE 6.9 mph - N/A   Clear
3:50 PM 91.6 °F 90.1 °F 57.2 °F 31% 30.00 in 10.0 mi NNE 8.1 mph - N/A   Clear
4:10 PM 92.8 °F 91.4 °F 57.6 °F 30% 30.00 in 10.0 mi ENE 8.1 mph - N/A   Clear
4:30 PM 92.5 °F 91.3 °F 57.9 °F 31% 30.00 in 10.0 mi NE 8.1 mph - N/A   Clear
4:50 PM 91.9 °F 90.8 °F 58.5 °F 32% 29.99 in 10.0 mi ENE 5.8 mph - N/A   Clear
5:10 PM 91.9 °F 91.2 °F 59.0 °F 33% 29.99 in 10.0 mi East 9.2 mph 16.1 mph N/A   Clear
5:30 PM 92.7 °F 92.1 °F 59.4 °F 33% 30.00 in 10.0 mi NE 6.9 mph - N/A   Clear
5:50 PM 92.1 °F 91.7 °F 59.7 °F 34% 30.00 in 10.0 mi ENE 6.9 mph - N/A   Scattered Clouds
6:10 PM 90.9 °F 90.6 °F 60.4 °F 36% 30.00 in 10.0 mi East 8.1 mph - N/A   Scattered Clouds
6:50 PM 89.4 °F 89.8 °F 62.2 °F 40% 30.01 in 10.0 mi East 4.6 mph - N/A   Scattered Clouds
7:30 PM 88.2 °F 89.3 °F 63.7 °F 44% 30.01 in 10.0 mi East 4.6 mph - N/A   Clear
7:50 PM 86.9 °F 88.3 °F 64.6 °F 47% 30.02 in 10.0 mi East 4.6 mph - N/A   Clear
8:10 PM 85.8 °F 87.6 °F 65.3 °F 50% 30.03 in 10.0 mi Calm Calm - N/A   Scattered Clouds
8:30 PM 84.9 °F 87.1 °F 66.2 °F 53% 30.04 in 10.0 mi Calm Calm - N/A   Scattered Clouds
8:50 PM 84.6 °F 86.8 °F 66.4 °F 54% 30.04 in 10.0 mi Calm Calm - N/A   Mostly Cloudy
9:10 PM 83.3 °F 85.9 °F 67.3 °F 58% 30.05 in 10.0 mi ESE 3.5 mph - N/A   Mostly Cloudy
9:50 PM 83.7 °F 87.7 °F 69.8 °F 63% 30.06 in 10.0 mi ESE 5.8 mph - N/A   Mostly Cloudy
10:10 PM 83.3 °F 87.6 °F 70.3 °F 65% 30.05 in 10.0 mi ESE 3.5 mph - N/A   Mostly Cloudy
10:30 PM 82.4 °F 86.7 °F 70.7 °F 68% 30.06 in 10.0 mi East 3.5 mph - N/A   Scattered Clouds
10:50 PM 81.9 °F 86.0 °F 70.7 °F 69% 30.07 in 10.0 mi East 4.6 mph - N/A   Clear
11:10 PM 81.5 °F 85.5 °F 70.7 °F 70% 30.07 in 10.0 mi East 4.6 mph - N/A   Clear
11:30 PM 81.0 °F 84.7 °F 70.9 °F 71% 30.07 in 10.0 mi Calm Calm - N/A   Clear
11:50 PM 80.6 °F 84.4 °F 71.1 °F 73% 30.07 in 10.0 mi Calm Calm - N/A   Scattered Clouds